Wisconsin Dells, Wisconsin, United States (53965)
Lat: 43.63N, Lon: 89.77W
Wx Zone: WIZ057
Local Info
Past Weather Observations for Saturday, September 13, 2014

NOTE: This archive is for the closest National Weather Service station to Wisconsin Dells. Information may differ from the station used for current weather conditions.

Click here for Long-term Archive

Time Weather Temperature Dewpoint Humidity Pressure Winds Precip Visibility
23:55
Overcast
43°F / 6°C 39°F / 4°C 87% 30.3 in
(1026 mb)
S 3.5 mph
(S 6 kph)
- 10SM
23:35
Overcast
45°F / 7°C 39°F / 4°C 81% 30.3 in
(1026 mb)
S 3.5 mph
(S 6 kph)
- 10SM
23:15
Overcast
43°F / 6°C 41°F / 5°C 93% 30.3 in
(1026 mb)
Calm - 10SM
22:55
Overcast
41°F / 5°C 39°F / 4°C 93% 30.3 in
(1026 mb)
Calm - 10SM
22:35
Mostly Cloudy
41°F / 5°C 39°F / 4°C 93% 30.3 in
(1026 mb)
Calm - 10SM
22:15
Clear
41°F / 5°C 39°F / 4°C 93% 30.3 in
(1026 mb)
S 3.5 mph
(S 6 kph)
- 10SM
21:55
Clear
41°F / 5°C 39°F / 4°C 93% 30.3 in
(1026 mb)
S 4.6 mph
(S 7 kph)
- 10SM
21:35
Clear
41°F / 5°C 37°F / 3°C 87% 30.3 in
(1026 mb)
SSE 3.5 mph
(SSE 6 kph)
- 10SM
21:15
Clear
41°F / 5°C 39°F / 4°C 93% 30.3 in
(1026 mb)
S 3.5 mph
(S 6 kph)
- 10SM
20:55
Partly Cloudy
41°F / 5°C 39°F / 4°C 93% 30.3 in
(1026 mb)
S 3.5 mph
(S 6 kph)
- 10SM
20:35
Partly Cloudy
43°F / 6°C 39°F / 4°C 87% 30.3 in
(1026 mb)
SSE 3.5 mph
(SSE 6 kph)
- 10SM
20:15
Clear
43°F / 6°C 39°F / 4°C 87% 30.27 in
(1025 mb)
Calm - 10SM
19:55
Clear
43°F / 6°C 39°F / 4°C 87% 30.27 in
(1025 mb)
Calm - 10SM
19:35
Clear
45°F / 7°C 39°F / 4°C 81% 30.27 in
(1025 mb)
Calm - 10SM
19:15
Clear
46°F / 8°C 39°F / 4°C 76% 30.27 in
(1025 mb)
Calm - 10SM
18:55
Clear
46°F / 8°C 39°F / 4°C 76% 30.27 in
(1025 mb)
Calm - 10SM
18:35
Partly Cloudy
48°F / 9°C 37°F / 3°C 66% 30.27 in
(1025 mb)
S 3.5 mph
(S 6 kph)
- 10SM
18:15
Partly Cloudy
50°F / 10°C 37°F / 3°C 62% 30.27 in
(1025 mb)
SW 3.5 mph
(SW 6 kph)
- 10SM
17:55
Mostly Cloudy
52°F / 11°C 36°F / 2°C 54% 30.27 in
(1025 mb)
SSW 4.6 mph
(SSW 7 kph)
- 10SM
17:35
Partly Cloudy
55°F / 13°C 36°F / 2°C 47% 30.27 in
(1025 mb)
SSE 5.8 mph
(SSE 9 kph)
- 10SM
17:15
Clear
55°F / 13°C 34°F / 1°C 44% 30.3 in
(1026 mb)
SSE 4.6 mph
(SSE 7 kph)
- 10SM
16:55
Clear
55°F / 13°C 34°F / 1°C 44% 30.3 in
(1026 mb)
Calm - 10SM
16:35
Clear
55°F / 13°C 32°F / 0°C 41% 30.3 in
(1026 mb)
SSW 4.6 mph
(SSW 7 kph)
- 10SM
16:15
Clear
57°F / 14°C 32°F / 0°C 39% 30.3 in
(1026 mb)
SSW 5.8 mph
(SSW 9 kph)
- 10SM
15:55
Partly Cloudy
57°F / 14°C 32°F / 0°C 39% 30.3 in
(1026 mb)
Calm - 10SM
15:35
Partly Cloudy
59°F / 15°C 32°F / 0°C 36% 30.3 in
(1026 mb)
SSW 6.9 mph
(SSW 11 kph)
- 10SM
15:15
Partly Cloudy
57°F / 14°C 32°F / 0°C 39% 30.3 in
(1026 mb)
W 3.5 mph
(W 6 kph)
- 10SM
14:55
Partly Cloudy
55°F / 13°C 32°F / 0°C 41% 30.3 in
(1026 mb)
SSW 3.5 mph
(SSW 6 kph)
- 10SM
14:35
Clear
57°F / 14°C 30°F / -1°C 36% 30.3 in
(1026 mb)
Calm - 10SM
14:15
Clear
57°F / 14°C 32°F / 0°C 39% 30.3 in
(1026 mb)
SW 4.6 mph
(SW 7 kph)
- 10SM
13:55
Partly Cloudy
55°F / 13°C 30°F / -1°C 38% 30.3 in
(1026 mb)
W 5.8 mph
(W 9 kph)
- 10SM
13:35
Mostly Cloudy
57°F / 14°C 30°F / -1°C 36% 30.33 in
(1027 mb)
N 4.6 mph
(N 7 kph)
- 10SM
13:15
Partly Cloudy
55°F / 13°C 30°F / -1°C 38% 30.33 in
(1027 mb)
Calm - 10SM
12:55
Partly Cloudy
55°F / 13°C 30°F / -1°C 38% 30.33 in
(1027 mb)
Calm - 10SM
12:35
Clear
55°F / 13°C 32°F / 0°C 41% 30.33 in
(1027 mb)
Calm - 10SM
12:15
Clear
55°F / 13°C 30°F / -1°C 38% 30.33 in
(1027 mb)
NNE 6.9 mph
(NNE 11 kph)
- 10SM
11:55
Partly Cloudy
54°F / 12°C 30°F / -1°C 41% 30.33 in
(1027 mb)
NE 4.6 mph
(NE 7 kph)
- 10SM
11:35
Clear
54°F / 12°C 30°F / -1°C 41% 30.36 in
(1028 mb)
NE 6.9 mph
(NE 11 kph)
- 10SM
11:15
Clear
54°F / 12°C 28°F / -2°C 38% 30.36 in
(1028 mb)
WNW 4.6 mph
(WNW 7 kph)
- 10SM
10:55
Partly Cloudy
54°F / 12°C 32°F / 0°C 44% 30.36 in
(1028 mb)
NW 5.8 mph
(NW 9 kph)
- 10SM
10:35
Partly Cloudy
52°F / 11°C 32°F / 0°C 47% 30.36 in
(1028 mb)
NE 4.6 mph
(NE 7 kph)
- 10SM
10:15
Clear
52°F / 11°C 34°F / 1°C 50% 30.36 in
(1028 mb)
NNW 4.6 mph
(NNW 7 kph)
- 10SM
09:55
Partly Cloudy
50°F / 10°C 36°F / 2°C 58% 30.39 in
(1029 mb)
NNW 5.8 mph
(NNW 9 kph)
- 10SM
09:35
Clear
50°F / 10°C 37°F / 3°C 62% 30.36 in
(1028 mb)
NW 5.8 mph
(NW 9 kph)
- 10SM
09:15
Clear
48°F / 9°C 39°F / 4°C 71% 30.36 in
(1028 mb)
NW 4.6 mph
(NW 7 kph)
- 10SM
08:55
Clear
46°F / 8°C 39°F / 4°C 76% 30.36 in
(1028 mb)
NW 3.5 mph
(NW 6 kph)
- 10SM
08:35
Partly Cloudy
45°F / 7°C 39°F / 4°C 81% 30.36 in
(1028 mb)
NNW 4.6 mph
(NNW 7 kph)
- 10SM
08:15
Partly Cloudy
43°F / 6°C 39°F / 4°C 87% 30.36 in
(1028 mb)
NNW 5.8 mph
(NNW 9 kph)
- 10SM
07:55
Mostly Cloudy
41°F / 5°C 39°F / 4°C 93% 30.36 in
(1028 mb)
NNW 3.5 mph
(NNW 6 kph)
- 10SM
07:35
Mostly Cloudy
41°F / 5°C 39°F / 4°C 93% 30.36 in
(1028 mb)
NW 3.5 mph
(NW 6 kph)
- 10SM
07:15
Overcast
41°F / 5°C 39°F / 4°C 93% 30.36 in
(1028 mb)
NW 4.6 mph
(NW 7 kph)
- 10SM
06:55
Overcast
39°F / 4°C 39°F / 4°C 100% 30.36 in
(1028 mb)
NW 4.6 mph
(NW 7 kph)
- 10SM
06:35
Overcast
39°F / 4°C 37°F / 3°C 93% 30.36 in
(1028 mb)
NW 5.8 mph
(NW 9 kph)
- 10SM
06:15
Overcast
39°F / 4°C 37°F / 3°C 93% 30.36 in
(1028 mb)
NW 3.5 mph
(NW 6 kph)
- 7SM
05:55
Overcast
Fog And Mist
39°F / 4°C 37°F / 3°C 93% 30.36 in
(1028 mb)
NW 4.6 mph
(NW 7 kph)
- 4SM
05:35
Overcast
Fog And Mist
37°F / 3°C 37°F / 3°C 100% 30.36 in
(1028 mb)
Calm - 3/4SM
05:15
Overcast
Fog
37°F / 3°C 37°F / 3°C 100% 30.33 in
(1027 mb)
NW 4.6 mph
(NW 7 kph)
- 1/4SM
04:55
Overcast
Fog
37°F / 3°C 37°F / 3°C 100% 30.33 in
(1027 mb)
NW 4.6 mph
(NW 7 kph)
- 1/4SM
04:35
Overcast
Fog
37°F / 3°C 37°F / 3°C 100% 30.33 in
(1027 mb)
NW 4.6 mph
(NW 7 kph)
- 1/2SM
04:15
Overcast
Fog And Mist
37°F / 3°C 37°F / 3°C 100% 30.33 in
(1027 mb)
Calm - 4SM
03:55
Mostly Cloudy
37°F / 3°C 37°F / 3°C 100% 30.33 in
(1027 mb)
Calm - 10SM
03:35
Partly Cloudy
37°F / 3°C 37°F / 3°C 100% 30.33 in
(1027 mb)
Calm - 10SM
03:15
Clear
37°F / 3°C 37°F / 3°C 100% 30.33 in
(1027 mb)
Calm - 10SM
02:55
Clear
37°F / 3°C 37°F / 3°C 100% 30.3 in
(1026 mb)
Calm - 10SM
02:35
Partly Cloudy
37°F / 3°C 37°F / 3°C 100% 30.3 in
(1026 mb)
Calm - 10SM
02:15
Partly Cloudy
39°F / 4°C 37°F / 3°C 93% 30.3 in
(1026 mb)
W 3.5 mph
(W 6 kph)
- 10SM
01:55
Mostly Cloudy
39°F / 4°C 39°F / 4°C 100% 30.3 in
(1026 mb)
Calm - 10SM
01:35
Overcast
41°F / 5°C 39°F / 4°C 93% 30.3 in
(1026 mb)
WNW 3.5 mph
(WNW 6 kph)
- 10SM
01:15
Partly Cloudy
39°F / 4°C 39°F / 4°C 100% 30.3 in
(1026 mb)
WNW 3.5 mph
(WNW 6 kph)
- 10SM
00:55
Clear
39°F / 4°C 37°F / 3°C 93% 30.3 in
(1026 mb)
NW 4.6 mph
(NW 7 kph)
- 10SM
00:35
Clear
39°F / 4°C 39°F / 4°C 100% 30.33 in
(1027 mb)
W 4.6 mph
(W 7 kph)
- 10SM
00:15
Partly Cloudy
39°F / 4°C 39°F / 4°C 100% 30.33 in
(1027 mb)
Calm - 10SM
Time Weather Temperature Dewpoint Humidity Pressure Winds Precip Visibility


Weather for websites

WeatherForYou.com, LLC is not responsible for any damages or problems caused by this service. Current weather conditions are obtained from the closest station including government and personal stations which may have varying degrees of accuracy. Weather forecasts are derived from the NOAA NDFD. Like all things, this site belongs to Jesus Christ... He just trusts me to maintain it. If you have any questions or comments email webmaster@weatherforyou.com

Copyright © 2014, WeatherForYou.com LLC. All rights reserved.